Date,TemperatureHighF,TemperatureAvgF,TemperatureLowF,DewpointHighF,DewpointAvgF,DewpointLowF,HumidityHigh,HumidityAvg,HumidityLow,PressureMaxIn,PressureMinIn,WindSpeedMaxMPH,WindSpeedAvgMPH,GustSpeedMaxMPH,PrecipitationSumIn
2013-1-1,40.8,35.8,26.8,35.5,30.9,19.9,93,82,69,29.71,29.55,9,2,0,0.08
2013-1-2,34.0,26.8,21.0,22.7,19.2,15.2,88,73,61,29.87,29.69,5,1,0,0.00
2013-1-3,33.6,27.3,21.6,23.7,21.4,19.0,92,78,64,29.90,29.76,5,1,0,0.00
2013-1-4,39.9,31.6,23.9,30.6,26.5,22.4,96,82,67,29.79,29.66,7,2,0,0.00
2013-1-5,44.1,33.2,25.9,31.9,26.8,23.3,98,78,59,30.00,29.72,6,1,0,0.00
2013-1-6,47.3,37.8,30.0,38.6,33.4,28.5,98,85,64,29.92,29.67,5,1,0,0.00
2013-1-7,46.9,34.9,23.5,36.6,30.0,23.0,98,84,56,30.12,29.75,6,1,0,0.00
2013-1-8,48.9,32.3,20.5,40.3,29.6,20.0,98,91,69,30.13,30.04,6,1,0,0.00
2013-1-9,47.8,37.1,25.5,44.7,35.6,25.0,98,95,85,30.09,29.84,5,1,0,0.00
2013-1-10,48.7,39.5,32.4,37.6,32.7,29.6,98,78,54,30.26,29.95,6,1,0,0.00
2013-1-11,45.9,40.5,32.5,45.4,38.6,28.9,98,93,83,30.24,29.79,4,1,0,0.68
2013-1-12,49.6,45.9,42.4,49.1,45.4,41.9,98,98,98,29.88,29.77,3,0,0,0.00
2013-1-13,49.5,46.6,44.2,49.0,46.1,43.7,98,98,98,29.87,29.72,2,0,0,0.02
2013-1-14,58.3,50.1,39.6,57.7,47.3,37.2,98,91,67,30.01,29.60,7,1,0,0.12
2013-1-15,39.9,37.7,35.1,38.9,34.7,32.3,98,89,78,30.06,29.91,5,1,0,0.16
2013-1-16,35.8,34.1,32.4,35.3,33.6,31.9,98,98,98,29.92,29.53,5,1,0,0.97
2013-1-17,45.5,38.8,35.6,39.0,35.2,30.8,98,87,72,29.81,29.62,8,1,0,0.01
2013-1-18,35.4,28.5,22.1,31.3,18.8,12.0,85,67,48,30.21,29.71,7,2,0,0.00
2013-1-19,51.6,37.3,21.6,37.3,29.9,16.7,95,75,56,30.11,29.64,7,2,0,0.00
2013-1-20,55.6,40.1,26.4,41.1,29.1,17.8,98,68,35,29.76,29.41,10,2,0,0.00
2013-1-21,33.1,27.4,18.5,22.5,18.1,13.5,92,68,56,29.81,29.56,6,1,0,0.00
2013-1-22,25.7,19.1,11.7,14.9,6.0,-0.6,68,57,43,29.94,29.55,7,3,0,0.00
2013-1-23,21.0,12.8,6.6,5.8,1.9,-1.8,89,62,49,29.97,29.88,6,2,0,0.00
2013-1-24,25.3,15.6,5.2,8.9,4.9,1.9,93,65,41,30.14,29.83,9,2,0,0.00
2013-1-25,25.2,16.4,7.7,18.5,8.8,1.2,98,73,53,30.15,29.78,7,1,0,0.00
2013-1-26,28.2,17.7,5.9,19.0,11.5,5.0,98,78,56,30.11,29.76,6,2,0,0.02
2013-1-27,36.7,22.3,10.9,20.3,15.2,9.1,96,76,51,30.24,30.11,6,1,0,0.01
2013-1-28,34.2,29.3,18.0,33.7,28.1,16.8,98,95,83,30.21,29.71,3,1,0,0.19
2013-1-29,54.5,41.7,33.3,49.9,40.8,32.8,98,97,81,29.84,29.71,7,1,0,0.01
2013-1-30,67.3,52.3,40.6,66.7,51.8,40.1,98,98,98,29.78,29.05,8,1,0,0.04
2013-1-31,62.4,44.5,27.7,61.8,36.9,16.6,98,76,52,29.51,28.74,14,5,0,1.40
2013-2-1,34.5,26.8,21.7,23.6,18.1,12.9,98,70,44,29.96,29.50,9,3,0,0.00
2013-2-2,31.1,23.5,16.3,23.8,15.0,10.5,98,71,50,30.02,29.76,7,2,0,0.00
2013-2-3,32.5,25.2,18.9,26.9,23.1,18.4,98,92,75,29.76,29.50,5,1,0,0.03
2013-2-4,31.1,25.1,19.9,23.9,17.2,14.4,98,73,55,29.70,29.52,9,2,0,0.00
2013-2-5,31.6,29.3,26.4,31.1,28.7,23.8,98,98,89,29.68,29.59,3,1,0,0.00
2013-2-6,40.1,32.0,24.3,33.7,26.4,15.3,98,81,60,30.07,29.63,7,1,0,0.03
2013-2-7,33.6,28.0,18.5,27.9,19.0,12.9,90,69,56,30.21,30.02,5,1,0,0.00
2013-2-8,35.1,32.7,28.4,34.0,31.8,27.9,98,96,85,30.02,29.36,9,3,0,0.27
2013-2-9,34.5,27.8,17.1,29.5,22.4,11.7,98,81,59,30.07,29.46,0,0,0,0.00
2013-2-10,41.0,24.3,6.6,26.1,17.6,6.2,98,78,43,30.20,30.04,0,0,0,0.33
2013-2-11,43.3,35.9,26.8,42.8,35.4,26.3,98,98,98,30.03,29.37,0,0,0,1.01
2013-2-12,46.9,38.6,27.9,36.4,33.0,27.4,98,81,63,29.69,29.43,7,2,0,0.06
2013-2-13,43.7,33.2,20.3,35.6,29.6,19.8,98,88,66,29.68,29.39,4,0,0,0.05
2013-2-14,47.7,36.1,27.0,39.3,32.1,26.5,98,87,57,29.72,29.43,4,1,0,0.02
2013-2-15,56.1,39.8,25.0,43.4,35.1,24.5,98,85,58,29.73,29.62,4,1,0,0.00
2013-2-16,41.0,35.7,30.0,38.9,31.3,20.0,98,85,66,29.69,29.45,5,2,0,0.06
2013-2-17,33.1,26.7,17.1,19.5,13.0,5.6,68,56,45,29.74,29.39,9,4,0,0.00
2013-2-18,35.8,24.6,15.3,19.5,13.0,5.9,77,62,45,29.97,29.75,9,2,0,0.00
2013-2-19,49.1,35.6,20.3,44.5,32.8,17.8,98,90,65,29.91,29.39,8,2,0,0.38
2013-2-20,35.6,30.0,24.3,31.0,20.7,15.3,83,68,57,29.72,29.45,9,4,0,0.00
2013-2-21,36.5,28.2,22.3,23.3,19.1,15.0,79,69,57,30.00,29.70,9,3,0,0.00
2013-2-22,38.3,30.2,21.6,36.0,26.0,18.3,98,84,71,30.11,29.99,5,1,0,0.00
2013-2-23,43.3,39.7,36.3,42.8,39.2,35.8,98,98,98,29.99,29.52,7,2,0,0.63
2013-2-24,50.2,39.9,32.5,48.2,37.2,28.2,98,90,74,29.69,29.46,7,2,0,0.02
2013-2-25,46.0,38.1,24.6,36.8,33.7,24.1,98,85,70,29.95,29.71,5,2,0,0.00
2013-2-26,45.3,39.8,27.0,42.7,37.7,26.5,98,92,83,30.00,29.58,11,4,0,0.18
2013-2-27,49.3,42.3,37.2,48.8,41.8,36.7,98,98,98,29.58,29.20,11,3,0,1.37
2013-2-28,52.2,42.1,33.4,47.0,39.5,32.9,98,91,71,29.34,29.26,6,1,0,0.00
2013-3-1,48.7,38.1,28.6,41.1,34.6,28.1,98,88,69,29.51,29.32,9,2,0,0.00
2013-3-2,41.5,35.3,29.5,35.3,31.8,28.9,98,87,72,29.51,29.42,5,2,0,0.00
2013-3-3,40.3,32.5,27.7,30.2,26.5,22.4,97,79,66,29.50,29.38,7,2,0,0.00
2013-3-4,43.7,34.0,26.2,31.3,26.4,21.0,93,74,59,29.64,29.48,7,3,0,0.00
2013-3-5,51.1,37.9,27.9,37.3,31.6,26.4,98,80,57,29.74,29.64,6,2,0,0.00
2013-3-6,42.4,39.9,36.1,41.2,38.5,35.3,98,95,84,29.69,29.55,16,6,0,0.00
2013-3-7,40.1,37.0,33.1,39.6,35.5,32.6,98,94,84,29.81,29.63,11,3,0,0.12
2013-3-8,39.6,35.1,31.3,39.1,34.6,30.8,98,98,98,29.91,29.73,6,1,0,0.62
2013-3-9,56.8,40.7,28.8,36.9,30.8,23.6,98,73,28,30.04,29.89,8,2,0,0.10
2013-3-10,49.6,36.7,25.7,44.3,35.2,25.2,98,95,76,30.11,30.02,6,1,0,0.00
2013-3-11,55.8,45.4,32.5,53.9,44.7,32.0,98,97,84,30.04,29.80,4,1,0,0.00
2013-3-12,59.2,52.3,42.8,58.6,51.8,42.3,98,98,98,29.79,29.37,7,2,0,1.09
2013-3-13,53.6,41.5,33.8,41.9,36.3,31.5,98,83,51,29.60,29.50,8,2,0,0.00
2013-3-14,43.2,35.1,28.9,31.1,21.5,15.5,82,59,40,29.69,29.56,8,3,0,0.00
2013-3-15,47.1,38.4,24.6,38.5,28.1,17.3,82,66,54,29.70,29.42,7,2,0,0.00
2013-3-16,42.4,35.5,30.6,37.0,32.0,27.7,98,88,65,29.63,29.49,4,1,0,0.06
2013-3-17,39.0,33.0,27.3,32.9,26.0,21.0,98,77,56,30.01,29.62,8,2,0,0.00
2013-3-18,38.5,30.9,25.5,33.5,25.2,15.1,98,80,60,30.11,29.73,7,3,0,0.16
2013-3-19,49.8,38.7,33.8,46.6,37.0,26.4,98,94,63,29.71,29.40,8,2,0,1.12
2013-3-20,47.8,37.7,27.7,32.6,27.2,24.6,93,67,46,29.61,29.49,9,2,0,0.00
2013-3-21,40.5,34.4,31.1,33.3,27.1,19.7,98,76,51,29.55,29.34,5,2,0,0.00
2013-3-22,43.2,33.6,21.7,30.7,26.9,21.2,98,77,58,29.60,29.47,7,2,0,0.00
2013-3-23,48.7,38.7,28.0,33.9,28.7,24.6,96,70,49,29.64,29.54,7,3,0,0.00
2013-3-24,48.2,43.6,32.2,34.1,31.2,26.4,80,62,53,29.67,29.41,10,3,0,0.00
2013-3-25,39.4,37.0,34.0,38.3,35.8,32.9,98,96,78,29.35,29.18,16,3,0,0.22
2013-3-26,53.8,41.8,29.5,42.4,35.4,29.0,98,80,54,29.58,29.31,6,1,0,0.00
2013-3-27,55.0,42.1,26.4,41.3,34.9,25.9,98,78,46,29.70,29.58,9,2,0,0.00
2013-3-28,53.4,43.1,30.9,42.9,36.9,30.4,98,80,60,29.83,29.68,9,2,0,0.00
2013-3-29,57.7,42.8,28.8,41.2,35.5,28.3,98,78,51,29.87,29.77,7,1,0,0.00
2013-3-30,61.7,44.2,27.9,41.0,31.9,27.2,98,68,33,29.89,29.77,4,1,0,0.00
2013-3-31,57.7,43.4,28.0,48.2,39.2,27.5,98,87,56,29.84,29.39,8,2,0,0.20
2013-4-1,66.9,49.1,36.1,57.5,43.2,21.1,98,82,51,29.63,29.33,9,2,0,0.02
2013-4-2,46.4,35.9,24.1,29.8,22.4,19.5,86,59,39,29.80,29.64,8,2,0,0.00
2013-4-3,49.6,36.7,22.6,30.9,21.8,18.0,87,56,39,30.02,29.81,8,2,0,0.00
2013-4-4,56.1,41.7,25.3,38.1,28.7,19.6,86,61,43,30.11,29.79,5,2,0,0.00
2013-4-5,66.2,49.4,40.1,42.7,34.6,26.7,92,60,33,29.79,29.42,8,2,0,0.00
2013-4-6,55.6,43.8,32.9,34.7,26.0,21.4,86,53,27,30.03,29.73,7,2,0,0.00
2013-4-7,66.4,50.7,33.3,52.2,42.8,32.2,98,77,45,30.02,29.69,7,2,0,0.00
2013-4-8,78.3,59.6,41.7,57.1,51.9,41.2,98,79,42,29.78,29.69,8,1,0,0.00
2013-4-9,85.3,66.4,48.2,65.3,53.3,45.5,98,69,27,29.69,29.59,8,1,0,0.00
2013-4-10,78.8,62.5,54.1,64.7,58.4,53.4,98,88,62,29.66,29.51,8,1,0,0.45
2013-4-11,61.2,55.8,47.7,60.6,55.2,47.2,98,98,98,29.74,29.47,8,2,0,0.02
2013-4-12,48.6,44.1,42.1,48.1,43.6,41.6,98,98,98,29.72,29.42,10,4,0,0.87
2013-4-13,61.7,48.7,37.0,55.5,45.5,36.5,98,90,66,29.69,29.46,6,1,0,0.04
2013-4-14,60.6,51.4,40.3,50.9,43.5,39.4,98,77,52,29.93,29.68,11,2,0,0.00
2013-4-15,56.3,49.0,41.0,49.9,43.1,37.0,98,81,65,30.10,29.93,7,2,0,0.00
2013-4-16,72.1,58.5,45.3,71.5,58.0,44.8,98,98,98,30.09,29.81,8,2,0,0.00
2013-4-17,74.7,61.6,47.3,59.7,52.5,39.4,98,77,28,30.02,29.81,6,1,0,0.01
2013-4-18,55.8,50.9,43.2,55.2,50.4,42.7,98,98,98,30.05,29.83,8,2,0,0.01
2013-4-19,80.1,72.9,62.6,79.5,72.3,62.0,98,98,98,29.65,29.32,8,4,0,0.23
2013-4-20,60.3,53.0,45.9,59.5,46.1,34.8,98,79,53,30.02,29.40,8,2,0,0.18
2013-4-21,54.9,40.7,33.3,40.4,34.7,29.4,98,80,58,30.34,30.02,7,2,0,0.00
2013-4-22,55.4,44.8,31.1,52.2,42.3,30.6,98,92,68,30.37,30.20,8,3,0,0.00
2013-4-23,52.5,45.5,40.1,52.0,45.0,39.6,98,98,98,30.19,29.83,7,2,0,0.00
2013-4-24,74.7,51.1,34.2,68.5,50.1,33.7,98,97,76,29.83,29.50,6,2,0,0.00
2013-4-25,67.5,55.2,42.1,60.0,44.6,36.2,98,71,33,29.99,29.56,7,2,0,0.00
2013-4-26,68.2,52.3,35.8,52.0,41.3,35.3,98,71,32,30.12,29.98,6,1,0,0.00
2013-4-27,71.6,55.4,36.1,48.4,42.9,35.6,98,67,37,30.15,29.99,5,1,0,0.01
2013-4-28,70.9,52.0,37.0,57.2,44.4,36.5,98,79,45,30.03,29.90,4,1,0,0.01
2013-4-29,54.9,53.4,52.0,54.3,52.9,51.5,98,98,95,29.95,29.89,5,1,0,0.24
2013-4-30,66.6,54.7,41.4,60.9,51.5,40.0,98,91,42,30.06,29.92,7,1,0,0.00
2013-5-1,67.8,51.5,35.6,58.6,46.4,35.1,98,85,42,30.20,30.05,9,2,0,0.00
2013-5-2,72.7,55.6,37.9,66.5,51.4,37.4,98,88,55,30.20,30.03,6,1,0,0.00
2013-5-3,65.3,54.8,43.2,62.5,52.1,42.7,98,91,71,30.17,30.08,8,2,0,0.00
2013-5-4,68.0,52.4,39.6,64.0,50.0,39.1,98,92,69,30.10,29.96,7,2,0,0.01
2013-5-5,60.8,49.6,39.7,60.2,49.0,39.2,98,98,88,30.01,29.94,5,2,0,0.00
2013-5-6,65.8,48.9,39.7,65.2,48.4,39.2,98,98,98,29.99,29.87,4,0,0,0.00
2013-5-7,73.6,58.3,43.9,73.0,57.8,43.4,98,98,98,29.89,29.78,8,1,0,0.00
2013-5-8,67.3,61.0,51.4,66.7,60.4,50.9,98,98,98,29.80,29.66,6,1,0,2.06
2013-5-9,68.9,55.6,49.8,68.3,55.0,49.3,98,98,98,29.72,29.60,2,0,0,0.64
2013-5-10,82.0,60.4,50.0,78.9,59.6,49.5,98,97,75,29.71,29.58,5,0,0,0.00
2013-5-11,73.6,64.8,61.9,73.0,64.2,61.3,98,98,98,29.60,29.38,5,1,0,0.73
2013-5-12,69.1,60.3,49.1,67.9,53.8,40.3,98,82,48,29.66,29.37,8,2,0,0.02
2013-5-13,59.4,49.0,37.9,52.0,43.8,37.4,98,84,57,29.83,29.66,7,2,0,0.00
2013-5-14,64.0,49.7,35.2,52.0,41.0,31.3,98,77,34,29.86,29.74,7,1,0,0.01
2013-5-15,76.3,58.0,39.7,75.7,57.5,39.2,98,98,98,29.79,29.38,4,1,0,0.00
2013-5-16,82.8,67.8,54.7,82.2,66.5,54.1,98,96,69,29.53,29.40,6,1,0,0.00
2013-5-17,74.7,64.0,54.0,66.7,58.3,51.8,98,84,49,29.91,29.53,6,2,0,0.00
2013-5-18,64.0,57.9,49.5,63.4,57.3,49.0,98,98,98,30.03,29.91,4,0,0,0.00
2013-5-19,58.8,57.7,55.9,58.2,57.1,55.3,98,98,98,30.03,29.89,5,1,0,0.81
2013-5-20,81.3,68.4,58.5,80.7,67.8,57.9,98,98,98,29.90,29.66,5,1,0,0.00
2013-5-21,89.4,74.5,60.8,88.8,73.9,60.2,98,98,98,29.68,29.54,4,1,0,0.00
2013-5-22,83.3,70.7,63.1,82.7,70.1,62.5,98,98,98,29.63,29.53,5,1,0,0.00
2013-5-23,82.6,73.3,68.7,82.0,72.7,68.1,98,98,98,29.59,29.45,6,1,0,0.50
2013-5-24,68.7,56.3,45.7,68.1,55.7,45.2,98,98,98,29.68,29.39,6,2,0,0.65
2013-5-25,58.6,50.7,45.0,58.0,50.2,44.5,98,98,98,29.74,29.63,10,3,0,0.09
2013-5-26,70.5,57.4,45.7,60.6,50.7,45.2,98,81,49,29.92,29.69,9,2,0,0.00
2013-5-27,77.0,59.3,40.1,61.5,51.6,39.6,98,79,47,29.97,29.82,7,1,0,0.00
2013-5-28,66.4,57.8,47.5,65.8,57.2,47.0,98,98,98,29.94,29.83,2,0,0,0.60
2013-5-29,88.2,71.1,59.7,87.6,70.5,59.1,98,98,98,29.84,29.69,4,1,0,0.01
2013-5-30,93.4,79.9,66.6,92.4,78.6,66.0,98,96,77,29.84,29.76,4,1,0,0.00
2013-5-31,95.9,80.5,66.2,92.7,77.4,65.6,98,91,58,29.83,29.69,4,1,0,0.00
2013-6-1,92.8,79.6,64.9,91.8,78.6,64.3,98,97,75,29.72,29.60,6,1,0,0.00
2013-6-2,90.1,80.4,71.1,89.5,79.8,70.5,98,98,98,29.64,29.47,8,2,0,0.21
2013-6-3,80.6,72.9,66.0,80.0,72.3,65.4,98,98,98,29.58,29.49,5,1,0,0.42
2013-6-4,77.5,66.1,55.9,69.2,61.2,55.3,98,86,56,29.81,29.58,6,2,0,0.00
2013-6-5,72.9,61.9,46.9,68.3,58.7,46.4,98,90,65,29.93,29.81,4,1,0,0.00
2013-6-6,70.2,62.4,54.7,69.6,61.8,54.1,98,98,98,29.85,29.70,7,1,0,0.26
2013-6-7,64.9,62.4,61.0,64.3,61.8,60.4,98,98,98,29.70,29.30,6,2,0,4.48
2013-6-8,78.4,67.6,57.7,77.8,67.0,57.1,98,98,98,29.74,29.27,6,1,0,0.04
2013-6-9,83.3,70.8,57.4,82.7,70.2,56.8,98,98,98,29.88,29.75,5,1,0,0.00
2013-6-10,71.1,66.7,64.6,70.5,66.1,64.0,98,98,98,29.85,29.51,5,1,0,1.66
2013-6-11,82.6,74.0,67.8,82.0,73.4,67.2,98,98,98,29.50,29.32,9,2,0,0.09
2013-6-12,80.2,70.9,60.1,79.6,70.3,59.5,98,98,98,29.55,29.41,6,2,0,0.00
2013-6-13,67.3,62.6,57.7,66.7,62.0,57.1,98,98,98,29.54,29.13,8,2,0,1.21
2013-6-14,74.8,61.3,54.1,74.2,60.7,53.5,98,98,98,29.59,29.22,6,2,0,0.40
2013-6-15,82.8,68.8,55.4,82.2,68.2,54.8,98,98,97,29.72,29.59,5,1,0,0.01
2013-6-16,84.0,70.5,55.9,83.4,69.9,55.3,98,98,98,29.70,29.48,7,1,0,0.00
2013-6-17,88.2,74.9,63.9,87.6,74.3,63.3,98,98,98,29.61,29.53,9,1,0,0.00
2013-6-18,84.0,70.7,63.1,83.4,70.1,62.5,98,98,98,29.60,29.51,3,0,0,0.27
2013-6-19,79.3,68.4,58.3,76.8,66.8,57.7,98,95,69,29.86,29.58,5,1,0,0.00
2013-6-20,78.3,61.6,52.3,77.7,61.0,51.8,98,98,98,29.97,29.87,3,0,0,0.00
2013-6-21,84.4,63.8,54.3,83.8,63.2,53.7,98,98,92,30.00,29.92,3,0,0,0.00
2013-6-22,86.5,72.5,55.0,85.9,71.9,54.4,98,98,98,29.96,29.81,4,1,0,0.00
2013-6-23,90.5,75.3,61.5,89.9,74.7,60.9,98,98,98,29.89,29.75,5,1,0,0.36
2013-6-24,94.6,80.2,71.2,93.9,79.5,70.6,98,98,98,29.78,29.66,5,1,0,0.01
2013-6-25,92.8,76.9,66.4,92.1,76.3,65.8,98,98,98,29.70,29.50,5,1,0,0.20
2013-6-26,88.0,78.6,71.2,87.4,78.0,70.6,98,98,98,29.55,29.45,4,1,0,0.00
2013-6-27,88.2,78.8,70.9,87.6,78.2,70.3,98,98,98,29.53,29.25,5,1,0,0.49
2013-6-28,88.7,78.3,72.0,88.1,77.7,71.4,98,98,98,29.26,29.15,5,1,0,0.00
2013-6-29,88.7,77.3,66.4,88.1,76.7,65.8,98,98,98,29.41,29.18,5,1,0,0.00
2013-6-30,86.7,76.7,69.8,86.1,76.1,69.2,98,98,98,29.61,29.41,5,0,0,0.08
2013-7-1,79.2,75.9,73.4,78.6,75.3,72.8,98,98,98,29.74,29.58,3,0,0,2.27
2013-7-2,86.7,78.2,73.6,86.1,77.6,73.0,98,98,98,29.89,29.73,4,1,0,0.09
2013-7-3,88.2,78.2,71.2,87.6,77.6,70.6,98,98,98,29.95,29.86,4,0,0,0.08
2013-7-4,91.4,81.9,74.3,90.8,81.3,73.7,98,98,98,29.95,29.84,5,1,0,0.01
2013-7-5,95.2,83.3,72.9,94.5,82.7,72.3,98,98,98,29.92,29.78,4,1,0,0.00
2013-7-6,96.1,83.2,73.9,95.4,82.6,73.3,98,98,98,29.84,29.72,5,1,0,0.00
2013-7-7,95.0,84.3,74.1,94.3,83.7,73.5,98,98,98,29.78,29.63,5,1,0,0.00
2013-7-8,91.4,79.7,70.2,90.8,79.1,69.6,98,98,98,29.76,29.66,6,1,0,0.00
2013-7-9,90.7,79.2,68.9,90.1,78.6,68.3,98,98,98,29.77,29.68,4,1,0,0.02
2013-7-10,89.1,80.2,72.3,88.5,79.6,71.7,98,98,98,29.72,29.50,5,1,0,0.01
2013-7-11,86.4,79.4,72.0,85.8,78.8,71.4,98,98,98,29.62,29.49,5,0,0,0.00
2013-7-12,78.6,73.1,68.9,78.0,72.5,68.3,98,98,98,29.78,29.61,8,2,0,0.38
2013-7-13,82.6,75.2,69.6,82.0,74.6,69.0,98,98,98,29.99,29.78,4,1,0,0.32
2013-7-14,92.8,82.4,75.0,92.1,81.7,74.4,98,98,98,30.04,29.92,4,1,0,0.02
2013-7-15,97.3,83.8,72.0,96.6,83.2,71.4,98,98,98,29.96,29.82,4,1,0,0.00
2013-7-16,95.0,83.7,73.2,94.3,83.1,72.6,98,98,98,29.91,29.82,7,1,0,0.00
2013-7-17,96.6,84.6,72.1,95.9,84.0,71.5,98,98,98,29.89,29.75,4,1,0,0.00
2013-7-18,99.0,86.9,75.0,98.3,86.3,74.4,98,98,98,29.78,29.63,5,1,0,0.00
2013-7-19,98.2,88.0,77.9,97.5,87.3,77.3,98,98,98,29.68,29.49,7,1,0,0.00
2013-7-20,93.4,83.0,75.2,92.7,82.4,74.6,98,98,98,29.54,29.42,5,1,0,0.13
2013-7-21,89.2,79.7,72.3,88.6,79.1,71.7,98,98,98,29.66,29.53,4,1,0,0.01
2013-7-22,88.5,78.0,71.4,87.9,77.4,70.8,98,98,98,29.65,29.49,5,1,0,0.23
2013-7-23,89.1,79.5,73.4,88.5,78.9,72.8,98,98,98,29.48,29.26,5,1,0,0.41
2013-7-24,82.9,75.3,67.5,82.3,74.7,66.9,98,98,98,29.62,29.31,7,1,0,0.00
2013-7-25,68.7,66.3,63.5,68.1,65.7,62.9,98,98,98,29.74,29.63,6,2,0,0.00
2013-7-26,84.6,72.6,65.1,84.0,72.0,64.5,98,98,98,29.74,29.67,5,1,0,0.00
2013-7-27,86.9,73.3,61.2,86.3,72.7,60.6,98,98,98,29.75,29.63,5,1,0,0.00
2013-7-28,83.5,72.7,65.5,82.9,72.1,64.9,98,98,98,29.68,29.59,6,1,0,0.95
2013-7-29,85.5,74.7,64.8,84.9,74.1,64.2,98,98,98,29.81,29.64,5,1,0,0.03
2013-7-30,83.8,70.5,57.2,83.2,69.9,56.6,98,98,98,29.87,29.77,5,1,0,0.00
2013-7-31,85.3,72.1,57.9,84.7,71.5,57.3,98,98,98,29.86,29.72,3,0,0,0.00
2013-8-1,73.9,70.0,66.9,73.3,69.4,66.3,98,98,98,29.74,29.52,2,0,0,1.07
2013-8-2,86.5,74.8,64.4,85.9,74.2,63.8,98,98,98,29.62,29.48,5,1,0,0.02
2013-8-3,79.7,70.5,64.4,79.1,69.9,63.8,98,98,98,29.62,29.52,5,1,0,0.04
2013-8-4,82.0,70.6,60.3,81.4,70.0,59.7,98,98,98,29.68,29.54,5,1,0,0.00
2013-8-5,79.9,67.5,55.6,79.3,66.9,55.0,98,98,98,29.77,29.67,5,1,0,0.00
2013-8-6,84.2,70.6,56.8,83.6,70.0,56.2,98,98,98,29.83,29.73,4,1,0,0.00
2013-8-7,82.2,72.6,64.9,81.6,72.0,64.3,98,98,98,29.83,29.76,5,1,0,0.02
2013-8-8,84.2,75.0,70.3,83.6,74.4,69.7,98,98,98,29.77,29.70,4,0,0,1.86
2013-8-9,86.4,78.3,72.7,85.8,77.7,72.1,98,98,98,29.72,29.50,5,1,0,0.17
2013-8-10,84.6,75.6,67.3,84.0,75.0,66.7,98,98,98,29.75,29.56,5,1,0,0.01
2013-8-11,83.8,71.5,59.9,83.2,70.9,59.3,98,98,98,29.82,29.71,5,1,0,0.00
2013-8-12,85.5,74.1,69.1,84.9,73.5,68.5,98,98,98,29.74,29.62,2,0,0,0.25
2013-8-13,80.8,72.3,68.4,80.2,71.7,67.8,98,98,98,29.62,29.37,4,0,0,1.15
2013-8-14,76.6,67.1,56.1,76.0,66.5,55.5,98,98,98,29.71,29.45,6,2,0,0.00
2013-8-15,79.3,70.3,58.1,78.7,69.7,57.5,98,98,98,29.84,29.74,5,1,0,0.00
2013-8-16,82.6,67.8,53.4,82.0,67.2,52.8,98,98,98,29.90,29.82,3,0,0,0.00
2013-8-17,83.3,68.7,55.6,82.7,68.1,55.0,98,98,98,29.98,29.90,4,0,0,0.00
2013-8-18,77.4,68.6,61.2,76.8,68.0,60.6,98,98,98,29.95,29.81,3,0,0,0.00
2013-8-19,77.7,69.3,61.2,77.1,68.7,60.6,98,98,98,29.83,29.73,3,0,0,0.00
2013-8-20,87.8,74.3,62.1,87.2,73.7,61.5,98,98,98,29.83,29.74,4,0,0,0.00
2013-8-21,89.4,76.0,64.0,88.8,75.4,63.4,98,98,98,29.87,29.76,4,0,0,0.00
2013-8-22,79.2,72.9,69.1,78.6,72.3,68.5,98,98,98,29.77,29.57,2,0,0,0.52
2013-8-23,82.4,73.4,64.4,81.8,72.8,63.8,98,98,98,29.80,29.57,7,1,0,0.00
2013-8-24,81.3,69.3,58.1,80.7,68.7,57.5,98,98,98,30.05,29.80,6,1,0,0.00
2013-8-25,83.7,68.4,54.5,83.1,67.8,53.9,98,98,98,30.10,29.92,5,1,0,0.01
2013-8-26,82.9,72.6,62.6,82.3,72.0,62.0,98,98,98,29.94,29.61,4,1,0,0.02
2013-8-27,88.0,77.3,70.7,87.4,76.7,70.1,98,98,98,29.62,29.52,5,1,0,0.06
2013-8-28,86.5,75.1,68.4,85.9,74.5,67.8,98,98,98,29.59,29.53,3,0,0,0.08
2013-8-29,80.2,73.7,70.2,79.6,73.1,69.6,98,98,98,29.75,29.57,4,1,0,0.01
2013-8-30,85.5,76.3,69.1,84.9,75.7,68.5,98,98,98,29.73,29.56,7,1,0,0.00
2013-8-31,87.8,80.2,70.9,87.2,79.6,70.3,98,98,98,29.57,29.48,4,1,0,0.00
2013-9-1,86.4,77.8,72.7,85.8,77.2,72.1,98,98,98,29.57,29.48,2,0,0,0.00
2013-9-2,81.3,76.4,72.7,80.7,75.8,72.1,98,98,98,29.50,29.41,2,0,0,0.18
2013-9-3,83.1,78.6,74.3,82.5,78.0,73.7,98,98,98,29.50,29.45,5,1,0,0.00
2013-9-6,74.3,60.9,51.3,73.4,60.3,50.8,98,98,97,29.88,29.84,3,0,0,0.00
2013-9-7,80.2,64.0,47.3,79.6,63.4,46.8,98,98,98,29.85,29.60,4,1,0,0.01
2013-9-8,82.4,70.5,60.1,81.8,69.9,59.5,98,98,98,29.80,29.51,6,1,0,0.00
2013-9-9,72.7,62.8,48.7,72.1,62.2,48.2,98,98,98,29.96,29.81,6,1,0,0.00
2013-9-10,87.6,76.1,66.7,87.0,75.5,66.1,98,98,98,29.87,29.75,7,1,0,0.00
2013-9-11,95.2,82.8,73.4,94.5,82.2,72.8,98,98,98,29.82,29.67,5,1,0,0.00
2013-9-12,87.1,78.4,70.2,86.5,77.8,69.6,98,98,98,29.63,29.38,4,1,0,0.35
2013-9-13,79.0,68.7,58.1,78.4,68.1,57.5,98,98,98,29.57,29.34,6,1,0,0.14
2013-9-14,66.7,57.3,47.5,66.1,56.7,47.0,98,98,98,29.83,29.57,5,1,0,0.00
2013-9-15,74.1,57.8,44.2,73.5,57.2,43.7,98,98,98,29.93,29.78,4,0,0,0.00
2013-9-16,73.6,61.9,53.2,73.0,61.3,52.6,98,98,98,29.94,29.74,7,1,0,0.04
2013-9-17,66.2,54.9,43.9,65.6,54.3,43.4,98,98,98,30.15,29.95,7,1,0,0.00
2013-9-18,72.5,55.0,40.1,71.9,54.5,39.6,98,98,98,30.06,29.89,4,0,0,0.00
2013-9-19,77.5,60.0,45.1,76.9,59.4,44.6,98,98,98,29.91,29.76,4,0,0,0.00
2013-9-20,80.8,63.5,49.3,80.2,62.9,48.8,98,98,98,29.80,29.68,4,1,0,0.00
2013-9-21,80.8,66.0,50.5,80.2,65.4,50.0,98,98,98,29.72,29.34,6,1,0,0.19
2013-9-22,71.4,63.4,53.6,70.8,62.8,53.0,98,98,98,29.62,29.35,7,2,0,0.51
2013-9-23,66.7,55.3,43.9,66.1,54.8,43.4,98,98,98,29.76,29.62,8,1,0,0.00
2013-9-24,73.4,55.6,40.1,72.8,55.0,39.6,98,98,98,29.77,29.58,6,1,0,0.00
2013-9-25,73.2,56.6,43.7,72.6,56.1,43.2,98,98,98,29.67,29.57,4,0,0,0.00
2013-9-26,70.3,59.0,49.3,69.7,58.5,48.8,98,98,98,29.81,29.64,5,1,0,0.00
2013-9-27,69.3,60.9,49.5,68.7,60.3,49.0,98,98,98,29.97,29.80,3,1,0,0.00
2013-9-28,75.6,61.0,52.0,75.0,60.4,51.5,98,98,98,30.03,29.94,6,1,0,0.00
2013-9-29,71.8,58.5,48.9,71.2,57.9,48.4,98,98,98,29.93,29.78,4,1,0,0.00
2013-9-30,74.1,59.5,46.9,73.5,58.9,46.4,98,98,98,29.79,29.66,4,0,0,0.00
2013-10-1,82.0,64.4,50.4,81.4,63.8,49.9,98,98,98,29.72,29.59,5,0,0,0.00
2013-10-2,83.5,67.8,54.0,82.9,67.2,53.4,98,98,98,29.71,29.59,4,1,0,0.00
2013-10-3,80.8,66.8,54.3,80.2,66.2,53.7,98,98,98,29.82,29.71,3,0,0,0.00
2013-10-4,86.4,71.2,58.5,85.8,70.6,57.9,98,98,98,29.76,29.64,4,0,0,0.00
2013-10-5,76.8,69.6,64.4,76.2,69.0,63.8,98,98,98,29.80,29.70,4,1,0,0.03
2013-10-6,70.2,68.5,66.6,69.6,67.9,66.0,98,98,98,29.79,29.71,5,1,0,0.00
2013-10-7,79.7,67.4,55.4,79.1,66.8,54.8,98,98,98,29.70,29.44,7,1,0,0.49
2013-10-8,67.8,55.1,47.7,67.2,54.5,47.2,98,98,98,30.03,29.70,4,0,0,0.01
2013-10-9,62.6,55.6,48.2,62.0,55.0,47.7,98,98,98,30.09,29.99,8,2,0,0.00
2013-10-10,62.4,57.8,52.3,61.8,57.2,51.8,98,98,98,29.98,29.77,7,2,0,0.04
2013-10-11,68.4,63.2,57.7,67.8,62.6,57.1,98,98,98,29.77,29.70,8,2,0,0.02
2013-10-12,70.9,65.3,58.3,70.3,64.3,57.7,98,97,66,29.97,29.75,10,3,0,0.00
2013-10-13,65.7,59.4,53.2,65.1,58.8,52.6,98,98,98,30.10,29.96,7,2,0,0.00
2013-10-14,67.8,55.4,45.0,67.2,54.8,44.5,98,98,98,30.07,29.94,5,1,0,0.00
2013-10-15,72.1,55.9,46.4,71.5,55.3,45.9,98,98,98,29.97,29.82,4,0,0,0.00
2013-10-16,69.6,54.5,48.9,69.0,54.0,48.4,98,98,98,29.82,29.64,2,0,0,0.00
2013-10-17,73.9,68.5,65.3,73.3,67.9,64.7,98,98,98,29.59,29.37,3,1,0,0.01
2013-10-18,68.4,59.3,44.8,67.8,58.7,44.3,98,98,98,29.69,29.37,8,2,0,0.00
2013-10-19,65.3,53.0,41.0,64.7,52.4,40.5,98,98,98,29.70,29.44,4,0,0,0.03
2013-10-20,63.3,52.3,40.3,62.7,51.8,39.8,98,98,98,29.78,29.46,5,1,0,0.01
2013-10-21,68.4,50.9,36.3,67.8,50.4,35.8,98,98,97,29.85,29.69,4,1,0,0.00
2013-10-22,66.9,50.2,39.6,66.3,49.7,39.1,98,98,98,29.68,29.45,6,1,0,0.00
2013-10-23,56.5,45.7,35.6,55.9,45.2,35.1,98,98,98,29.52,29.30,7,1,0,0.00
2013-10-24,53.6,42.6,33.1,53.0,42.1,32.6,98,98,98,29.73,29.46,6,1,0,0.00
2013-10-25,54.5,41.4,30.4,53.9,40.9,29.9,98,98,98,29.94,29.72,8,1,0,0.00
2013-10-26,55.4,42.0,28.8,54.8,41.5,28.3,98,98,98,29.93,29.61,7,1,0,0.01
2013-10-27,59.2,47.4,34.5,58.6,46.9,34.0,98,98,98,29.84,29.55,5,1,0,0.00
2013-10-28,61.5,44.4,30.2,60.9,43.8,29.7,98,98,98,30.01,29.83,6,1,0,0.00
2013-10-29,57.0,45.3,37.0,56.4,44.8,36.5,98,98,98,30.13,30.01,4,0,0,0.00
2013-10-30,61.5,48.6,36.5,60.9,48.1,36.0,98,98,98,30.06,29.88,3,0,0,0.00
2013-10-31,66.0,59.1,46.0,65.4,58.5,45.5,98,98,98,29.92,29.50,3,0,0,0.09
2013-11-1,68.7,63.7,53.2,68.1,63.1,52.6,98,98,98,29.49,29.24,10,2,0,0.24
2013-11-2,67.8,55.7,46.0,67.2,55.2,45.5,98,98,98,29.49,29.31,6,0,0,0.00
2013-11-3,51.3,44.4,31.5,50.8,43.9,31.0,98,98,98,30.16,29.48,6,2,0,0.00
2013-11-4,45.7,35.4,25.5,41.8,32.6,25.0,98,91,60,30.38,30.16,7,1,0,0.00
2013-11-5,55.8,43.7,30.7,55.2,43.2,30.2,98,98,98,30.36,30.18,4,0,0,0.00
2013-11-6,63.1,50.8,37.6,62.5,50.2,37.1,98,98,98,30.20,29.77,4,0,0,0.00
2013-11-7,63.1,52.1,33.6,62.5,51.6,33.1,98,98,98,29.77,29.44,6,1,0,0.12
2013-11-8,50.4,41.1,30.7,49.9,40.6,30.2,98,98,98,29.94,29.64,7,1,0,0.00
2013-11-9,51.3,39.6,27.0,50.8,39.1,26.5,98,98,98,30.00,29.70,5,1,0,0.00
2013-11-10,60.6,46.4,34.7,60.0,45.9,34.2,98,98,98,29.75,29.52,9,2,0,0.00
2013-11-11,54.0,46.1,30.9,53.4,45.6,30.4,98,98,98,29.93,29.66,5,2,0,0.00
2013-11-12,49.8,37.4,26.1,49.3,36.9,25.6,98,98,98,30.01,29.62,9,2,0,0.01
2013-11-13,39.4,29.7,23.9,36.0,27.5,23.4,98,92,60,30.09,29.98,7,1,0,0.00
2013-11-14,53.6,37.8,26.8,44.6,30.3,22.1,98,80,29,29.98,29.86,6,2,0,0.00
2013-11-15,57.2,38.9,26.1,54.6,37.3,25.6,98,95,67,29.96,29.86,3,0,0,0.00
2013-11-16,60.3,47.7,34.0,59.7,47.2,33.5,98,98,98,30.04,29.93,3,0,0,0.05
2013-11-17,61.7,55.7,46.6,61.1,55.2,46.1,98,98,98,29.97,29.49,3,0,0,0.00
2013-11-18,65.1,58.8,48.7,64.5,55.2,40.1,98,89,59,29.49,29.29,10,2,0,0.18
2013-11-19,48.6,42.7,31.6,48.1,42.2,31.1,98,98,95,30.05,29.49,7,3,0,0.00
2013-11-20,44.6,33.1,25.0,38.8,20.5,-51.1,98,78,1,30.32,30.04,7,1,0,0.00
2013-11-21,51.6,39.9,23.7,51.1,39.4,23.2,98,98,98,30.32,30.09,7,1,0,0.00
2013-11-22,57.7,51.4,46.6,57.1,50.8,46.1,98,98,98,30.08,29.60,5,1,0,0.09
2013-11-23,53.2,41.6,29.3,52.6,39.3,26.4,98,92,54,29.75,29.60,10,3,0,0.00
2013-11-24,29.1,24.8,20.8,28.1,10.6,1.2,98,56,31,30.10,29.73,9,4,0,0.00
2013-11-25,35.2,27.0,16.3,34.7,26.5,15.8,98,98,97,30.20,30.03,6,1,0,0.00
2013-11-26,51.3,36.7,31.3,50.8,36.2,30.8,98,98,98,30.04,29.44,4,1,0,0.79
2013-11-27,64.4,47.5,32.9,63.8,46.8,32.4,98,98,74,29.45,29.05,10,3,0,2.61
2013-11-28,36.3,30.3,23.5,33.1,27.4,16.6,98,90,48,30.17,29.47,9,2,0,0.00
2013-11-29,40.5,30.5,23.5,40.0,30.0,23.0,98,98,98,30.45,30.16,4,0,0,0.00
2013-11-30,36.9,30.3,20.3,36.4,29.8,19.8,98,98,98,30.46,30.07,5,1,0,0.00
2013-12-1,49.5,40.0,27.9,49.0,39.5,27.4,98,98,98,30.07,29.71,3,0,0,0.00
2013-12-2,50.4,40.2,31.6,49.9,39.7,31.1,98,98,98,29.71,29.58,2,0,0,0.00
2013-12-3,54.1,40.4,31.6,53.5,39.9,31.1,98,98,98,29.70,29.57,4,0,0,0.00
2013-12-4,51.1,42.7,32.4,50.6,42.2,31.9,98,98,98,29.85,29.70,3,0,0,0.00
2013-12-5,58.5,53.8,48.4,57.9,53.2,47.9,98,98,98,29.81,29.63,2,0,0,0.01
2013-12-6,63.9,49.4,39.4,63.3,48.9,38.9,98,98,98,29.87,29.55,5,1,0,1.07
2013-12-7,40.8,35.6,26.6,40.3,35.1,26.1,98,98,98,30.22,29.79,8,1,0,0.22
2013-12-8,33.6,29.3,24.4,33.1,28.8,23.9,98,98,98,30.30,30.06,6,1,0,0.00
2013-12-9,38.8,35.8,31.6,38.3,35.3,31.1,98,98,98,30.05,29.67,5,1,0,0.32
2013-12-10,37.8,32.0,22.1,37.3,31.5,21.6,98,98,98,29.84,29.58,3,0,0,0.01
2013-12-11,34.0,25.8,19.0,33.5,25.3,18.5,98,98,98,30.05,29.84,7,1,0,0.01
2013-12-12,28.2,22.7,16.5,25.0,21.1,16.0,98,94,69,30.07,29.88,5,2,0,0.01
2013-12-13,34.7,23.8,10.8,34.2,23.3,10.3,98,98,98,30.03,29.83,5,1,0,0.00
2013-12-14,31.1,25.0,20.5,30.6,24.5,20.0,98,98,98,30.19,29.47,9,2,0,0.00
2013-12-15,39.2,34.6,29.1,38.7,34.1,28.6,98,98,98,29.55,29.20,6,2,0,0.67
2013-12-16,30.2,24.4,13.3,29.7,23.9,12.8,98,98,96,29.93,29.53,6,2,0,0.01
2013-12-17,31.5,24.8,17.6,31.0,24.3,17.1,98,98,98,29.92,29.63,5,1,0,0.00
2013-12-18,37.2,25.7,15.6,36.7,25.2,15.1,98,98,98,29.88,29.62,8,1,0,0.15
2013-12-19,44.1,29.5,16.5,43.6,29.0,16.0,98,98,98,29.89,29.73,4,0,0,0.26
2013-12-20,50.0,38.0,28.9,49.5,37.5,28.4,98,98,98,29.81,29.68,3,0,0,0.08
2013-12-21,60.6,47.3,36.9,60.0,46.8,36.4,98,98,98,29.70,29.60,3,0,0,0.00
2013-12-22,70.3,64.0,51.8,69.7,63.4,51.3,98,98,98,29.66,29.50,7,2,0,0.01
2013-12-23,63.7,55.7,40.3,63.1,55.1,39.8,98,98,98,29.87,29.59,6,1,0,0.76
2013-12-24,40.8,34.4,25.2,40.3,33.9,24.7,98,98,98,30.05,29.80,7,2,0,0.00
2013-12-25,29.3,24.0,17.2,26.8,22.8,16.7,98,95,71,30.25,30.06,6,1,0,0.00
2013-12-26,34.9,29.3,23.5,34.4,28.8,23.0,98,98,98,30.14,29.88,6,1,0,0.00
2013-12-27,41.4,28.9,20.5,40.9,28.4,20.0,98,98,98,30.08,29.97,5,1,0,0.00
2013-12-28,55.2,36.3,20.5,51.8,34.3,20.0,98,94,66,29.99,29.77,9,1,0,0.00
2013-12-29,45.1,39.9,32.5,44.6,39.4,32.0,98,98,98,29.77,29.13,5,1,0,1.60
2013-12-30,44.6,34.2,21.0,44.1,33.7,20.5,98,98,98,29.91,29.40,7,2,0,0.01
2013-12-31,31.1,23.5,15.6,30.6,23.0,15.1,98,98,98,30.00,29.77,9,1,0,0.00
2014-1-1,34.3,24.9,16.3,33.8,24.4,15.8,98,98,98,30.13,29.94,4,0,0,0.00
2014-1-2,31.6,27.1,18.1,31.1,26.6,17.6,98,98,98,29.92,29.36,9,4,0,0.00